Radioactive Concentration measured by Seawater Radiation Monitor near Fukushima Daiichi Nuclear Power Station
Date,Time,Cs137(Bq/L),Cs134(Bq/L),Total β(Bq/L)
2016/10/21,00:00,1.1,0.16,ND
2016/10/21,00:10,1.1,0.16,ND
2016/10/21,00:20,1.1,0.15,ND
2016/10/21,00:30,1.1,0.13,ND
2016/10/21,00:40,1.0,0.13,9.5
2016/10/21,00:50,1.1,0.14,ND
2016/10/21,01:00,1.0,0.13,ND
2016/10/21,01:10,1.1,0.13,ND
2016/10/21,01:20,1.1,0.11,ND
2016/10/21,01:30,1.1,0.13,9.7
2016/10/21,01:40,1.1,0.13,8.8
2016/10/21,01:50,1.1,0.14,8.8
2016/10/21,02:00,1.0,0.12,ND
2016/10/21,02:10,1.0,0.12,ND
2016/10/21,02:20,1.0,0.13,ND
2016/10/21,02:30,0.94,0.12,ND
2016/10/21,02:40,0.96,0.11,ND
2016/10/21,02:50,0.95,0.092,ND
2016/10/21,03:00,0.92,0.10,ND
2016/10/21,03:10,0.94,0.11,ND
2016/10/21,03:20,0.94,0.12,ND
2016/10/21,03:30,0.95,0.10,ND
2016/10/21,03:40,0.92,0.12,ND
2016/10/21,03:50,0.93,0.12,ND
2016/10/21,04:00,0.90,0.095,ND
2016/10/21,04:10,0.91,0.095,ND
2016/10/21,04:20,0.89,0.088,ND
2016/10/21,04:30,0.88,0.087,ND
2016/10/21,04:40,0.88,0.087,ND
2016/10/21,04:50,0.86,0.090,ND
2016/10/21,05:00,0.82,0.097,ND
2016/10/21,05:10,0.81,0.094,ND
2016/10/21,05:20,0.81,0.10,ND
2016/10/21,05:30,0.83,0.12,ND
2016/10/21,05:40,0.78,0.11,ND
2016/10/21,05:50,0.80,0.096,ND
2016/10/21,06:00,0.79,0.095,ND
2016/10/21,06:10,0.78,0.085,ND
2016/10/21,06:20,0.77,0.080,ND
2016/10/21,06:30,0.75,0.087,ND
2016/10/21,06:40,0.76,0.074,ND
2016/10/21,06:50,0.76,0.077,ND
2016/10/21,07:00,0.77,0.071,ND
2016/10/21,07:10,0.80,0.099,ND
2016/10/21,07:20,0.82,0.094,ND
2016/10/21,07:30,0.89,0.085,ND
2016/10/21,07:40,0.85,0.097,ND
2016/10/21,07:50,0.84,0.11,ND
2016/10/21,08:00,0.85,0.13,ND
2016/10/21,08:10,0.85,0.12,ND
2016/10/21,08:20,0.86,0.12,ND
2016/10/21,08:30,0.85,0.13,ND
2016/10/21,08:40,0.85,0.10,ND
2016/10/21,08:50,0.87,0.10,ND
2016/10/21,09:00,0.88,0.098,ND
2016/10/21,09:10,0.87,0.11,ND
2016/10/21,09:20,0.89,0.11,ND
2016/10/21,09:30,0.86,0.13,ND
2016/10/21,09:40,0.88,0.13,ND
2016/10/21,09:50,0.87,0.13,ND
2016/10/21,10:00,0.87,0.12,ND
2016/10/21,10:10,0.88,0.12,ND
2016/10/21,10:20,0.88,0.12,ND
2016/10/21,10:30,0.90,0.11,ND
2016/10/21,10:40,0.91,0.10,ND
2016/10/21,10:50,0.92,0.098,ND
2016/10/21,11:00,0.94,0.095,ND
2016/10/21,11:10,0.96,0.085,ND
2016/10/21,11:20,0.94,0.079,ND
2016/10/21,11:30,0.92,0.089,ND
2016/10/21,11:40,0.87,0.10,ND
2016/10/21,11:50,0.83,0.11,ND
2016/10/21,12:00,0.79,0.10,ND
2016/10/21,12:10,0.77,0.10,ND
2016/10/21,12:20,0.72,0.096,ND
2016/10/21,12:30,0.68,0.097,ND
2016/10/21,12:40,0.67,0.083,ND
2016/10/21,12:50,0.67,0.073,ND
2016/10/21,13:00,0.67,0.074,ND
2016/10/21,13:10,0.65,0.070,ND
2016/10/21,13:20,0.68,0.069,ND
2016/10/21,13:30,0.72,0.069,ND
2016/10/21,13:40,0.74,0.066,ND
2016/10/21,13:50,0.69,0.069,ND
2016/10/21,14:00,0.69,0.064,ND
2016/10/21,14:10,0.69,0.073,ND
2016/10/21,14:20,0.66,0.072,ND
2016/10/21,14:30,0.68,0.067,ND
2016/10/21,14:40,0.66,0.071,ND
2016/10/21,14:50,0.67,0.054,ND
2016/10/21,15:00,0.70,0.050,ND
2016/10/21,15:10,0.68,0.043,ND
2016/10/21,15:20,0.68,0.043,ND
2016/10/21,15:30,0.67,0.052,ND
2016/10/21,15:40,0.67,0.049,ND
2016/10/21,15:50,0.67,0.092,ND
2016/10/21,16:00,0.65,0.068,ND
2016/10/21,16:10,0.66,0.087,ND
2016/10/21,16:20,0.66,0.088,ND
2016/10/21,16:30,0.65,0.087,ND
2016/10/21,16:40,0.61,0.072,ND
2016/10/21,16:50,0.60,0.066,ND
2016/10/21,17:00,0.59,0.076,ND
2016/10/21,17:10,0.61,0.071,ND
2016/10/21,17:20,0.60,0.070,ND
2016/10/21,17:30,0.58,0.076,ND
2016/10/21,17:40,0.61,0.075,ND
2016/10/21,17:50,0.59,0.089,ND
2016/10/21,18:00,0.61,0.079,ND
2016/10/21,18:10,0.61,0.073,ND
2016/10/21,18:20,0.65,0.063,ND
2016/10/21,18:30,0.67,0.059,ND
2016/10/21,18:40,0.65,0.058,ND
2016/10/21,18:50,0.69,0.043,ND
2016/10/21,19:00,0.69,0.043,ND
2016/10/21,19:10,0.69,0.044,ND
2016/10/21,19:20,0.68,0.048,ND
2016/10/21,19:30,0.69,0.041,ND
2016/10/21,19:40,0.68,0.042,ND
2016/10/21,19:50,0.67,0.041,ND
2016/10/21,20:00,0.66,0.052,ND
2016/10/21,20:10,0.63,0.072,ND
2016/10/21,20:20,0.62,0.066,ND
2016/10/21,20:30,0.61,0.083,ND
2016/10/21,20:40,0.65,0.079,ND
2016/10/21,20:50,0.64,0.091,ND
2016/10/21,21:00,0.64,0.084,ND
2016/10/21,21:10,0.70,0.083,ND
2016/10/21,21:20,0.67,0.076,ND
2016/10/21,21:30,0.72,0.078,ND
2016/10/21,21:40,0.67,0.073,ND
2016/10/21,21:50,0.72,0.080,ND
2016/10/21,22:00,0.74,0.070,ND
2016/10/21,22:10,0.71,0.058,ND
2016/10/21,22:20,0.72,0.088,ND
2016/10/21,22:30,0.72,0.052,ND
2016/10/21,22:40,0.71,0.052,ND
2016/10/21,22:50,0.68,0.068,ND
2016/10/21,23:00,0.67,0.073,ND
2016/10/21,23:10,0.69,0.069,ND
2016/10/21,23:20,0.68,0.069,ND
2016/10/21,23:30,0.68,0.072,ND
2016/10/21,23:40,0.69,0.073,ND
2016/10/21,23:50,0.70,0.066,ND
